Theta_e
332 331 330 331 331 331 331 331 330 329 328 328 330 331 332 332 332 331 331 331 330 329 330 329 328 329 329 329 328 328 328 329 329 328 328 328 328 328 329 329 329 329
332 330 329 330 330 330 331 330 328 327 327 329 329 329 330 331 331 331 331 331 330 328 328 329 328 329 329 329 329 328 328 328 329 328 329 328 328 329 329 328 329 329
331 330 329 329 328 329 331 330 328 325 326 328 327 326 328 330 331 331 331 331 331 329 327 327 327 329 330 329 329 329 329 329 328 328 329 329 329 329 328 328 328 328
328 329 329 329 328 329 331 330 328 326 324 324 326 326 328 330 330 331 331 331 331 329 326 325 327 329 330 330 328 327 328 329 328 328 329 330 329 328 328 328 328 327
328 327 327 328 328 329 330 330 329 327 325 324 326 328 329 330 330 330 331 331 331 329 326 325 326 329 330 329 327 325 327 329 328 328 329 330 329 329 328 328 328 327
329 328 328 328 328 329 330 330 330 329 327 325 326 329 329 329 329 330 331 331 330 329 326 326 327 329 329 328 326 325 327 329 329 329 329 329 329 329 328 328 327 327
329 329 329 329 329 329 330 331 330 330 329 328 328 329 329 328 329 330 330 330 330 328 327 327 328 329 328 327 326 325 327 329 329 329 329 329 329 328 327 327 327 326
329 329 329 329 329 329 330 330 330 330 330 330 330 329 328 328 329 329 329 329 328 327 326 327 328 329 328 327 326 326 328 329 328 329 329 328 328 327 326 326 326 326
330 330 330 329 329 329 329 330 330 330 330 330 330 329 328 327 328 328 328 328 327 326 326 327 327 328 329 328 327 327 328 329 329 329 329 328 327 327 326 327 327 326
328 329 330 330 330 330 329 329 329 330 329 329 330 329 328 327 328 327 326 326 325 325 327 328 326 327 329 328 326 327 328 329 329 328 328 327 327 327 326 326 326 326
327 328 329 329 330 330 329 328 328 328 328 328 328 329 328 328 328 327 326 324 324 325 327 327 325 326 328 327 326 327 328 328 328 327 327 326 326 326 326 326 326 326
327 328 328 328 329 329 329 329 328 328 328 327 327 327 328 329 328 327 325 323 324 326 327 326 324 325 327 326 326 327 328 328 327 327 326 326 325 325 324 325 326 325
324 326 327 327 328 328 328 329 328 328 328 328 327 327 328 329 328 327 325 323 324 326 325 324 324 325 325 325 327 328 328 327 327 327 326 325 324 324 324 325 326 326
322 323 324 325 326 326 327 328 328 328 328 328 328 327 328 329 328 326 324 323 325 327 325 324 324 324 324 326 327 328 327 327 326 327 326 325 324 324 325 325 325 325
321 322 322 323 324 325 325 326 327 327 327 327 327 327 328 328 328 326 324 324 326 326 325 324 323 323 324 327 327 326 327 327 327 327 327 325 324 323 323 324 324 323
322 322 322 322 323 324 324 325 325 326 326 327 327 328 328 328 327 326 325 325 325 325 324 323 322 323 326 326 324 325 326 327 326 326 326 324 322 322 322 323 323 323
320 321 322 322 322 323 323 324 324 324 325 326 327 328 328 328 327 325 325 326 326 324 323 322 322 325 326 324 323 324 326 325 324 325 325 323 321 322 321 322 322 322
319 320 321 321 321 322 323 323 324 324 324 326 327 327 328 328 326 325 325 326 325 324 323 323 325 326 324 322 323 325 325 324 323 324 323 322 322 321 321 321 321 319
319 319 321 321 321 322 323 324 324 325 325 326 327 327 327 327 327 326 325 325 324 324 325 325 325 325 323 323 324 324 323 323 322 322 322 322 321 321 321 321 319 318
318 318 320 321 322 322 322 323 324 324 325 326 326 326 327 327 328 327 325 324 325 326 325 324 324 324 324 323 323 323 323 322 321 321 321 321 321 321 321 320 319 319
316 317 319 321 321 322 322 323 323 324 324 324 324 325 326 326 328 327 325 326 326 324 322 322 324 325 324 323 323 322 322 322 321 321 321 321 321 321 321 320 319 319
315 315 317 319 320 321 322 322 322 322 323 322 323 325 324 323 325 325 324 325 324 323 322 323 323 324 324 323 322 321 321 322 322 321 321 321 321 321 320 320 320 320
314 314 315 317 318 319 320 320 320 320 320 320 323 325 324 323 324 324 322 323 323 323 323 322 322 323 322 321 321 320 320 320 321 321 321 321 321 320 320 320 320 320
314 313 314 316 317 317 317 316 316 316 316 319 322 323 322 322 321 321 320 320 321 322 322 321 321 321 321 320 320 319 319 319 319 320 320 320 320 320 319 319 320 320
314 314 314 315 316 316 314 313 313 313 314 317 319 319 318 318 317 318 318 317 318 319 319 319 320 319 319 318 318 317 317 317 318 319 318 318 319 320 320 319 320 320
314 314 315 315 315 315 315 315 315 315 315 316 317 317 316 316 316 317 318 316 316 316 316 316 317 317 317 316 316 316 316 316 317 318 317 317 318 319 320 320 320 320
Wind_Speed
26 24 22 23 24 26 26 23 21 21 21 23 26 25 24 24 23 25 27 26 25 24 23 23 24 26 28 28 26 24 23 22 20 18 18 18 18 17 16 15 14 14
25 25 23 21 23 26 26 23 20 19 18 19 22 22 20 22 23 25 25 24 23 22 22 22 23 26 28 27 25 23 23 23 20 18 18 18 18 17 16 15 14 13
25 25 25 24 24 24 24 23 21 19 20 20 19 17 16 19 22 22 22 22 22 22 22 22 24 25 26 25 24 24 25 24 21 19 18 18 17 17 16 16 15 14
20 20 23 24 25 22 19 20 20 19 19 19 18 18 17 19 20 20 20 21 22 22 22 23 24 25 26 26 24 24 25 24 22 20 18 18 18 17 16 16 15 15
16 20 24 24 23 21 19 19 19 18 18 19 21 21 21 20 21 21 20 20 21 22 22 23 24 25 26 26 24 24 25 24 21 20 19 19 19 18 17 16 15 15
13 19 23 23 23 23 22 21 18 16 17 19 22 23 22 21 20 20 20 19 20 21 22 23 23 23 24 24 23 24 25 24 22 21 20 19 20 19 18 17 16 16
11 13 17 20 23 24 23 22 19 17 17 19 22 23 22 20 19 19 19 18 19 20 21 22 22 23 23 24 23 24 24 24 23 22 21 20 20 20 19 18 17 16
10 10 12 16 21 22 22 22 20 19 19 21 22 23 22 20 20 20 20 19 20 21 21 21 21 23 24 23 23 25 24 23 22 21 20 21 20 19 18 18 17 16
13 12 12 13 16 17 18 19 19 20 22 22 22 22 22 21 22 21 21 21 21 20 20 20 21 23 24 23 23 24 23 21 19 19 19 19 19 18 17 17 17 16
16 15 15 15 16 15 15 17 19 21 22 22 22 23 22 22 24 24 22 22 21 20 20 21 22 23 23 23 24 24 21 19 18 17 18 17 17 16 16 16 17 16
16 17 18 18 18 17 16 16 17 19 20 21 23 24 23 24 26 26 25 23 22 21 21 22 23 23 22 23 24 23 20 18 18 17 16 16 15 15 15 16 15 15
15 17 18 19 19 19 19 18 18 19 20 21 23 24 24 25 28 28 25 23 22 22 22 23 23 23 22 22 22 21 18 18 18 17 15 15 15 15 14 14 13 12
14 15 17 18 18 19 20 20 20 22 23 23 24 24 24 26 29 29 25 23 23 24 24 24 23 23 23 22 20 19 18 18 18 17 16 15 15 14 14 13 12 11
15 15 16 17 16 17 19 22 23 23 24 25 26 26 26 27 30 29 25 24 25 26 26 25 23 24 24 21 19 19 19 19 19 18 16 16 15 14 13 13 12 11
15 16 17 16 15 14 15 19 22 23 24 26 28 29 28 29 30 28 26 27 28 28 27 25 24 23 22 20 19 21 21 19 18 17 17 16 15 14 14 14 13 11
20 16 16 16 14 13 13 15 18 20 21 24 26 27 29 31 31 29 28 29 29 28 27 25 24 22 21 20 20 21 20 18 17 17 18 17 16 15 14 14 13 11
26 21 17 14 13 12 12 13 14 15 16 19 22 25 30 32 30 29 30 30 29 28 27 25 23 22 21 20 20 20 19 18 17 18 18 17 16 15 14 13 13 11
29 25 20 16 12 11 11 13 15 15 15 19 24 28 31 32 30 31 31 31 29 28 27 25 23 22 20 19 19 20 19 18 17 17 18 18 16 15 14 13 12 9
28 25 22 19 16 13 13 14 16 18 20 24 28 31 31 31 31 32 32 30 28 27 26 24 22 21 20 19 19 19 19 18 17 16 17 18 17 15 15 13 10 8
27 23 19 18 17 16 15 16 17 21 26 29 31 32 31 30 31 31 30 29 27 26 25 23 22 22 21 19 18 18 18 17 16 16 17 18 17 16 15 13 10 8
27 22 17 15 14 15 16 16 17 22 28 30 31 30 27 26 29 31 30 29 27 26 26 25 24 23 21 19 17 16 16 16 16 16 17 18 18 17 15 13 11 9
24 20 16 13 11 12 15 16 17 22 25 26 26 27 26 26 28 29 30 30 30 29 29 29 26 24 22 20 17 16 15 16 16 16 17 19 19 17 16 14 12 10
22 18 15 11 8 9 12 13 16 20 21 20 21 24 27 28 27 28 29 29 30 30 29 27 26 25 23 20 17 15 14 14 15 16 17 18 18 18 16 15 13 11
20 16 13 11 9 7 7 8 12 14 15 15 17 21 23 23 25 28 28 28 29 29 27 25 25 24 22 19 17 15 13 13 14 15 15 16 17 17 17 15 14 13
20 15 12 10 9 7 5 3 4 9 13 13 14 18 22 23 23 24 23 22 23 24 24 23 22 21 19 18 16 14 13 12 13 13 14 15 16 17 17 16 15 14
19 17 12 9 7 6 8 10 9 8 10 14 15 17 20 20 18 17 17 17 17 17 17 17 17 17 17 16 15 14 13 11 11 11 12 14 15 16 16 16 16 15
Wind_Direction
276 276 279 279 277 275 273 274 278 279 279 278 276 269 258 252 250 244 237 234 236 237 236 234 233 232 230 228 228 230 232 230 223 217 219 220 221 222 220 220 221 224
270 274 280 282 277 272 272 275 279 280 280 281 284 282 270 261 256 249 242 239 238 236 234 233 234 235 234 232 231 231 229 228 224 215 215 218 218 219 220 220 221 223
268 270 274 277 277 274 273 273 273 275 277 278 281 281 275 269 265 259 253 246 238 233 230 231 234 238 238 236 236 235 230 224 219 214 213 215 216 216 217 218 218 219
268 270 270 269 270 272 274 271 267 269 271 270 271 270 268 270 269 264 257 247 236 230 228 229 234 239 239 237 236 236 232 223 216 213 213 213 213 212 212 215 216 218
256 257 264 269 268 266 265 266 267 272 270 265 266 266 265 269 268 262 254 245 235 230 228 228 233 237 237 236 233 231 230 225 217 212 211 212 211 211 212 215 217 218
257 254 261 270 271 263 260 260 264 271 269 265 266 266 266 267 263 254 248 243 236 230 227 229 231 233 232 230 228 228 227 222 216 212 210 210 212 213 216 218 219 219
269 266 265 270 270 265 261 259 261 264 263 263 265 267 268 264 253 244 240 236 231 227 226 227 231 232 228 224 225 229 226 220 215 210 208 210 212 216 219 221 221 221
272 270 266 266 267 266 263 260 260 261 260 261 262 265 268 262 247 238 233 229 226 224 225 227 232 232 225 222 226 227 224 220 216 209 208 210 212 215 219 221 221 220
276 270 263 263 268 271 269 264 261 260 259 258 256 259 263 257 244 235 229 226 225 225 226 226 227 226 221 220 223 223 220 218 213 208 209 212 213 217 219 220 221 219
273 268 261 261 266 272 271 264 260 257 254 250 250 253 255 250 240 233 228 224 223 226 225 220 219 219 218 218 220 220 216 212 210 209 213 215 216 220 221 221 221 217
269 267 263 260 262 266 267 262 256 252 248 243 243 247 248 243 237 232 228 223 222 224 221 217 216 216 215 216 219 220 214 208 210 213 217 219 217 218 221 221 218 216
269 266 266 265 264 263 264 261 253 248 245 240 236 239 242 238 233 231 228 223 221 219 215 215 215 214 214 214 218 221 213 206 209 213 216 219 215 213 214 213 211 211
285 273 268 266 265 263 262 258 253 247 244 241 237 237 240 235 229 227 225 220 217 214 212 213 213 213 215 215 217 220 216 209 208 209 211 212 208 204 205 204 204 204
301 290 281 272 266 262 257 254 253 251 248 246 242 240 240 233 226 223 220 214 210 210 211 211 211 214 215 213 212 215 215 210 205 204 205 203 197 196 199 198 193 189
319 305 299 292 281 271 260 253 252 251 250 248 244 241 238 230 223 220 215 209 207 208 208 208 210 213 212 209 209 212 211 204 199 199 199 194 190 189 190 189 188 186
338 325 313 304 294 285 275 264 256 252 250 247 245 241 235 226 217 213 211 208 207 205 202 204 207 206 206 208 210 210 206 198 194 193 191 187 185 185 186 188 191 196
339 337 326 311 297 289 289 284 275 269 259 252 247 241 232 221 210 206 207 207 206 202 199 200 201 199 202 207 206 202 197 192 189 188 187 187 187 188 191 195 200 208
339 338 334 324 313 307 308 302 289 280 269 257 247 237 228 217 205 200 203 201 199 198 196 196 195 194 197 199 197 193 188 184 185 187 189 190 192 194 198 201 206 215
343 341 334 325 320 319 317 303 283 268 259 252 243 232 222 211 202 199 199 195 192 191 189 188 190 192 192 191 189 187 185 184 186 190 192 193 195 197 199 202 206 208
350 344 329 315 313 314 308 295 276 255 244 238 232 223 213 202 198 197 194 190 186 184 182 182 188 193 191 189 188 187 188 190 192 194 194 195 196 198 199 202 205 204
356 347 327 310 306 303 294 283 264 245 236 229 220 211 200 197 199 196 191 186 180 179 180 182 187 193 192 190 191 192 193 196 198 199 198 197 196 196 198 201 204 205
2 353 331 310 297 289 284 273 249 234 228 221 209 194 188 199 205 195 188 185 179 180 185 184 184 190 191 191 193 195 196 198 199 201 202 199 198 199 201 203 203 204
6 3 342 319 302 291 280 258 233 221 214 205 193 186 190 200 201 191 187 186 181 184 188 183 180 185 188 188 193 196 199 201 200 201 202 204 206 208 208 207 206 203
6 11 2 346 341 333 303 258 220 202 189 183 186 189 190 193 190 185 185 183 179 182 184 179 177 181 184 187 193 197 202 206 207 206 206 207 211 212 211 211 209 204
6 11 14 7 10 30 45 64 149 149 141 148 171 174 168 167 170 171 173 172 171 173 176 176 177 180 184 189 193 194 198 206 211 213 214 214 215 215 213 211 209 206
8 9 13 12 17 55 94 100 99 103 120 136 149 151 150 157 163 168 173 172 167 168 171 175 180 183 185 190 192 192 196 202 210 217 221 219 216 215 214 209 204 203